• In Hungary
  • List of Countries
  • For 7 days
  • Water Temperature
  • Satellite Maps
  • Weather Map
  • News
  • Weather Widgets
  • user-avatar
    Login

    Hourly Weather Zwolle

    Today, 23 September, Sunday

    Time Temperature Precipitation Wind Pressure Humidity
    00:00 +10°C° 0.1 mm 2 mps 761 mmHg 94%
    01:00 +10°C° 0 mm 2 mps 761 mmHg 94%
    02:00 +10°C° 0 mm 2 mps 761 mmHg 94%
    03:00 +11°C° 0 mm 1 mps 760 mmHg 94%
    04:00 +11°C° 0 mm 1 mps 760 mmHg 94%
    05:00 +11°C° 0 mm 1 mps 760 mmHg 93%
    06:00 +10°C° 0 mm 0 mps 759 mmHg 93%
    07:00 +11°C° 0.2 mm 1 mps 759 mmHg 92%
    08:00 +12°C° 0.2 mm 1 mps 759 mmHg 91%
    09:00 +12°C° 0.2 mm 2 mps 759 mmHg 90%
    10:00 +12°C° 1.2 mm 2 mps 759 mmHg 89%
    11:00 +11°C° 1.2 mm 3 mps 759 mmHg 88%
    12:00 +11°C° 1.2 mm 3 mps 759 mmHg 87%
    13:00 +11°C° 0.9 mm 3 mps 759 mmHg 87%
    14:00 +11°C° 0.9 mm 3 mps 760 mmHg 87%
    15:00 +11°C° 0.9 mm 3 mps 760 mmHg 87%
    16:00 +11°C° 0.4 mm 4 mps 761 mmHg 87%
    17:00 +10°C° 0.4 mm 4 mps 761 mmHg 87%
    18:00 +10°C° 0.4 mm 4 mps 762 mmHg 87%
    19:00 +10°C° 0.1 mm 4 mps 763 mmHg 87%
    20:00 +8°C° 0.1 mm 4 mps 764 mmHg 86%
    21:00 +8°C° 0.1 mm 4 mps 765 mmHg 85%
    22:00 +8°C° 0 mm 4 mps 766 mmHg 85%
    23:00 +7°C° 0 mm 4 mps 767 mmHg 84%

    Tomorrow, 24 September, Monday

    Time Temperature Precipitation Wind Pressure Humidity
    00:00 +7°C° 0 mm 4 mps 768 mmHg 84%
    01:00 +7°C° 0 mm 4 mps 769 mmHg 84%
    02:00 +7°C° 0 mm 4 mps 770 mmHg 84%
    03:00 +7°C° 0 mm 4 mps 770 mmHg 83%
    04:00 +7°C° 0 mm 4 mps 771 mmHg 84%
    05:00 +7°C° 0 mm 4 mps 772 mmHg 84%
    06:00 +7°C° 0 mm 4 mps 772 mmHg 84%
    07:00 +8°C° 0.1 mm 4 mps 773 mmHg 78%
    08:00 +10°C° 0.1 mm 5 mps 773 mmHg 72%
    09:00 +13°C° 0.1 mm 5 mps 774 mmHg 66%
    10:00 +13°C° 0.1 mm 5 mps 774 mmHg 63%
    11:00 +14°C° 0.1 mm 5 mps 774 mmHg 59%
    12:00 +14°C° 0.1 mm 6 mps 775 mmHg 55%
    13:00 +14°C° 0 mm 6 mps 775 mmHg 55%
    14:00 +14°C° 0 mm 6 mps 775 mmHg 54%
    15:00 +14°C° 0 mm 6 mps 775 mmHg 54%
    16:00 +12°C° 0 mm 5 mps 775 mmHg 60%
    17:00 +11°C° 0 mm 4 mps 775 mmHg 67%
    18:00 +9°C° 0 mm 3 mps 776 mmHg 74%
    19:00 +9°C° 0 mm 2 mps 776 mmHg 77%
    20:00 +8°C° 0 mm 2 mps 777 mmHg 80%
    21:00 +7°C° 0 mm 2 mps 777 mmHg 83%
    22:00 +7°C° 0 mm 2 mps 777 mmHg 85%
    23:00 +7°C° 0 mm 2 mps 777 mmHg 86%

    Day after tomorrow, 25 September, Tuesday

    Time Temperature Precipitation Wind Pressure Humidity
    00:00 +8°C° 0 mm 1 mps 777 mmHg 87%
    01:00 +8°C° 0 mm 1 mps 777 mmHg 88%
    02:00 +8°C° 0 mm 1 mps 777 mmHg 88%
    03:00 +7°C° 0 mm 1 mps 777 mmHg 88%
    04:00 +7°C° 0 mm 1 mps 778 mmHg 88%
    05:00 +7°C° 0 mm 1 mps 778 mmHg 88%
    06:00 +7°C° 0 mm 1 mps 778 mmHg 88%
    07:00 +10°C° 0 mm 1 mps 778 mmHg 79%
    08:00 +12°C° 0 mm 1 mps 778 mmHg 71%
    09:00 +14°C° 0 mm 1 mps 778 mmHg 63%
    10:00 +15°C° 0 mm 1 mps 778 mmHg 59%
    11:00 +16°C° 0 mm 1 mps 778 mmHg 54%
    12:00 +16°C° 0 mm 1 mps 778 mmHg 50%
    13:00 +16°C° 0 mm 1 mps 778 mmHg 50%
    14:00 +16°C° 0 mm 1 mps 777 mmHg 51%
    15:00 +16°C° 0 mm 1 mps 777 mmHg 51%
    16:00 +14°C° 0 mm 1 mps 777 mmHg 56%
    17:00 +13°C° 0 mm 1 mps 777 mmHg 61%
    18:00 +11°C° 0 mm 1 mps 776 mmHg 67%
    19:00 +11°C° 0 mm 1 mps 776 mmHg 68%
    20:00 +9°C° 0 mm 2 mps 776 mmHg 69%
    21:00 +9°C° 0 mm 2 mps 776 mmHg 71%
    22:00 +8°C° 0 mm 2 mps 776 mmHg 71%
    23:00 +8°C° 0 mm 2 mps 776 mmHg 72%

    26 September, Wednesday

    Time Temperature Precipitation Wind Pressure Humidity
    00:00 +8°C° 0 mm 3 mps 775 mmHg 72%
    01:00 +8°C° 0 mm 3 mps 775 mmHg 73%
    02:00 +7°C° 0 mm 3 mps 774 mmHg 73%
    03:00 +7°C° 0 mm 3 mps 774 mmHg 74%
    04:00 +7°C° 0 mm 3 mps 774 mmHg 73%
    05:00 +7°C° 0 mm 3 mps 774 mmHg 73%
    06:00 +7°C° 0 mm 3 mps 773 mmHg 73%
    07:00 +8°C° 0 mm 4 mps 773 mmHg 66%
    08:00 +11°C° 0 mm 4 mps 773 mmHg 60%
    09:00 +13°C° 0 mm 4 mps 773 mmHg 54%
    10:00 +14°C° 0 mm 4 mps 773 mmHg 51%
    11:00 +17°C° 0 mm 4 mps 773 mmHg 48%
    12:00 +17°C° 0 mm 5 mps 772 mmHg 45%
    13:00 +18°C° 0 mm 4 mps 772 mmHg 46%
    14:00 +18°C° 0 mm 4 mps 772 mmHg 47%
    15:00 +18°C° 0 mm 4 mps 771 mmHg 48%
    16:00 +17°C° 0 mm 4 mps 772 mmHg 54%
    17:00 +14°C° 0 mm 3 mps 772 mmHg 60%
    18:00 +12°C° 0 mm 3 mps 772 mmHg 66%
    19:00 +12°C° 0 mm 3 mps 772 mmHg 68%
    20:00 +11°C° 0 mm 3 mps 772 mmHg 70%
    21:00 +11°C° 0 mm 3 mps 772 mmHg 72%
    22:00 +11°C° 0 mm 3 mps 772 mmHg 72%
    23:00 +11°C° 0 mm 3 mps 772 mmHg 73%

    27 September, Thursday

    Time Temperature Precipitation Wind Pressure Humidity
    00:00 +10°C° 0 mm 3 mps 772 mmHg 73%
    01:00 +10°C° 0 mm 3 mps 772 mmHg 73%
    02:00 +10°C° 0 mm 3 mps 771 mmHg 73%
    03:00 +10°C° 0 mm 3 mps 771 mmHg 73%
    04:00 +10°C° 0 mm 3 mps 771 mmHg 73%
    05:00 +10°C° 0 mm 3 mps 771 mmHg 73%
    06:00 +10°C° 0 mm 3 mps 771 mmHg 73%
    07:00 +12°C° 0 mm 3 mps 771 mmHg 68%
    08:00 +14°C° 0 mm 3 mps 771 mmHg 64%
    09:00 +17°C° 0 mm 3 mps 771 mmHg 59%
    10:00 +18°C° 0 mm 4 mps 770 mmHg 55%
    11:00 +19°C° 0 mm 4 mps 770 mmHg 52%
    12:00 +21°C° 0 mm 4 mps 770 mmHg 48%
    13:00 +21°C° 0 mm 3 mps 769 mmHg 48%
    14:00 +21°C° 0 mm 3 mps 769 mmHg 48%
    15:00 +21°C° 0 mm 3 mps 768 mmHg 48%
    16:00 +19°C° 0 mm 2 mps 768 mmHg 53%
    17:00 +17°C° 0 mm 2 mps 768 mmHg 59%
    18:00 +15°C° 0 mm 1 mps 768 mmHg 64%
    19:00 +14°C° 0 mm 1 mps 767 mmHg 65%
    20:00 +13°C° 0 mm 2 mps 767 mmHg 66%
    21:00 +13°C° 0 mm 2 mps 767 mmHg 67%
    22:00 +12°C° 0 mm 2 mps 767 mmHg 68%
    23:00 +12°C° 0 mm 2 mps 766 mmHg 68%

    28 September, Friday

    Time Temperature Precipitation Wind Pressure Humidity
    00:00 +10°C° 0 mm 2 mps 766 mmHg 68%
    01:00 +10°C° 0 mm 2 mps 765 mmHg 70%
    02:00 +10°C° 0 mm 2 mps 765 mmHg 71%
    03:00 +10°C° 0 mm 2 mps 765 mmHg 72%
    04:00 +10°C° 0 mm 2 mps 764 mmHg 74%
    05:00 +10°C° 0 mm 2 mps 764 mmHg 76%
    06:00 +10°C° 0 mm 2 mps 764 mmHg 78%
    07:00 +13°C° 0 mm 2 mps 764 mmHg 73%
    08:00 +15°C° 0 mm 2 mps 763 mmHg 68%
    09:00 +18°C° 0 mm 2 mps 763 mmHg 63%
    10:00 +19°C° 0 mm 2 mps 763 mmHg 61%
    11:00 +21°C° 0 mm 2 mps 762 mmHg 59%
    12:00 +23°C° 0 mm 2 mps 762 mmHg 57%
    13:00 +21°C° 0 mm 2 mps 761 mmHg 61%
    14:00 +21°C° 0 mm 2 mps 761 mmHg 65%
    15:00 +20°C° 0 mm 2 mps 760 mmHg 69%
    16:00 +19°C° 0.3 mm 2 mps 760 mmHg 75%
    17:00 +18°C° 0.3 mm 2 mps 760 mmHg 81%
    18:00 +16°C° 0.3 mm 2 mps 760 mmHg 87%
    19:00 +16°C° 0.7 mm 2 mps 760 mmHg 89%
    20:00 +15°C° 0.7 mm 2 mps 760 mmHg 90%
    21:00 +15°C° 0.7 mm 2 mps 760 mmHg 91%
    22:00 +13°C° 1 mm 3 mps 760 mmHg 92%
    23:00 +13°C° 1 mm 4 mps 760 mmHg 93%
    Show more